2001 HZ7  

Epoch 2001 Apr. 21.0 TT = JDT 2452020.5                 Nakano

M  43.41270              (2000.0)            P               Q

n   0.56586693     Peri.  311.99887     -0.32724057     -0.94423847

a   1.4476376      Node   157.02573     +0.89221993     -0.32145140

e   0.4891190      Incl.    5.35583     +0.31121890     -0.07129318

P   1.74           H   19.6           G   0.15           U   *

Residuals in seconds of arc 

010421 704  0.5-  0.5+    010421 165  1.1-  1.2-    010423 926  0.4+  0.1-  

010421 704  0.2-  0.2-    010421 952  1.9+  0.7+    010423 926  0.5-  0.4-  

010421 704  0.1-  0.1+    010422 402  0.3+  0.3+    010423 926  0.4+  0.3+  

010421 704  0.6+  0.0     010422 402  0.2+  0.3+    010423 704  0.8+  0.8-  

010421 704  0.2+  0.2+    010422 402  0.3+  0.3+    010423 704  0.3-  0.3-  

010421 946  0.2+  1.4-    010422 402  0.2-  0.3+    010423 704  0.4+  0.3+  

010421 946  0.6-  1.0-    010422 587  0.0   0.2+    010423 046  0.3-  0.3+  

010421 165  0.4+  0.6-    010422 587  0.2-  0.3+    010423 046  0.4+  0.5-  

010421 946  0.2-  0.6+    010423 704  0.3+  0.3+    010423 046  0.1-  0.6+  

010421 165  0.9-  0.0     010423 649 (1.4-  2.3+)   010423 046  0.2+  0.0   

010421 165  0.0   0.0     010423 649  0.2-  0.5-    010423 046  1.2-  0.5+  

010421 952  0.6-  0.7+    010423 649  0.4-  0.5-                            

010421 952  0.3+  1.0+    010423 704  0.5+  0.4-                            

  

NAKANO

         **** Don't distribute anyone except personal use only ****

                (C) Copyright 2001 OAA/ComputingSection

write mail from CFAD0::NAKANO on 2001-04-25 03:32:50(JST).

 





–ß‚è‚Ü‚·B